Time,TemperatureF,DewpointF,PressureIn,WindDirection,WindDirectionDegrees,WindSpeedMPH,WindSpeedGustMPH,Humidity,HourlyPrecipIn,Conditions,Clouds,dailyrainin,SoftwareType,DateUTC
2014-01-29 00:00:00,29.6,28.1,30.11,NE,38,0.0,4.0,94,0.00,,OVC060,0.08,VWS V15.00,2014-01-29 05:00:00,
2014-01-29 00:01:00,29.6,28.1,30.11,ENE,71,1.0,4.0,94,0.00,,OVC060,0.08,VWS V15.00,2014-01-29 05:01:00,
2014-01-29 00:06:00,29.6,28.1,30.11,NW,321,0.0,2.0,94,0.00,,OVC060,0.00,VWS V15.00,2014-01-29 05:06:00,
2014-01-29 00:13:00,29.5,28.0,30.11,North,349,0.0,4.0,94,0.00,,OVC060,0.00,VWS V15.00,2014-01-29 05:13:00,
2014-01-29 00:19:00,29.4,27.9,30.11,NW,321,0.0,4.0,94,0.00,,OVC060,0.00,VWS V15.00,2014-01-29 05:19:00,
2014-01-29 00:22:00,29.4,27.9,30.12,NW,319,0.0,4.0,94,0.00,,OVC060,0.00,VWS V15.00,2014-01-29 05:22:00,
2014-01-29 00:28:00,29.2,27.7,30.12,NW,311,0.0,4.0,94,0.00,,OVC060,0.00,VWS V15.00,2014-01-29 05:28:00,
2014-01-29 00:34:00,29.2,27.7,30.13,NNE,28,0.0,4.0,94,0.00,,OVC060,0.00,VWS V15.00,2014-01-29 05:34:00,
2014-01-29 00:40:00,29.2,27.7,30.12,NNE,21,1.0,4.0,94,0.00,,OVC060,0.00,VWS V15.00,2014-01-29 05:40:00,
2014-01-29 00:46:00,29.1,27.6,30.12,NNW,329,0.0,4.0,94,0.00,,OVC060,0.00,VWS V15.00,2014-01-29 05:46:00,
2014-01-29 00:52:00,29.2,27.7,30.11,NW,322,0.0,4.0,94,0.00,,OVC060,0.00,VWS V15.00,2014-01-29 05:52:00,
2014-01-29 00:58:00,29.2,27.7,30.11,NW,322,0.0,4.0,94,0.00,,OVC060,0.00,VWS V15.00,2014-01-29 05:58:00,
2014-01-29 01:00:00,27.5,25.8,30.11,NNW,346,0.0,4.0,93,0.00,,,0.00,VWS V15.00,2014-01-29 06:00:00,
2014-01-29 01:04:00,28.9,27.1,30.11,NW,323,0.0,1.0,93,0.00,,OVC060,0.00,VWS V15.00,2014-01-29 06:04:00,
2014-01-29 01:10:00,28.7,26.9,30.11,NW,307,0.0,4.0,93,0.00,,OVC060,0.00,VWS V15.00,2014-01-29 06:10:00,
2014-01-29 01:16:00,28.3,26.5,30.11,NE,39,0.0,4.0,93,0.00,,OVC060,0.00,VWS V15.00,2014-01-29 06:16:00,
2014-01-29 01:23:00,28.2,26.4,30.12,NNW,348,0.0,4.0,93,0.00,,OVC060,0.00,VWS V15.00,2014-01-29 06:23:00,
2014-01-29 01:29:00,28.1,26.3,30.11,ENE,57,0.0,4.0,93,0.00,,OVC060,0.00,VWS V15.00,2014-01-29 06:29:00,
2014-01-29 01:35:00,28.0,26.2,30.11,NNW,336,0.0,4.0,93,0.00,,OVC060,0.00,VWS V15.00,2014-01-29 06:35:00,
2014-01-29 01:41:00,27.9,26.1,30.11,North,5,0.0,4.0,93,0.00,,OVC060,0.00,VWS V15.00,2014-01-29 06:41:00,
2014-01-29 01:47:00,27.8,26.0,30.10,ENE,67,0.0,4.0,93,0.00,,OVC060,0.00,VWS V15.00,2014-01-29 06:47:00,
2014-01-29 01:53:00,27.6,25.8,30.12,NNW,329,0.0,4.0,93,0.00,,OVC060,0.00,VWS V15.00,2014-01-29 06:53:00,
2014-01-29 01:59:00,27.5,25.8,30.11,ENE,57,0.0,4.0,93,0.00,,OVC060,0.00,VWS V15.00,2014-01-29 06:59:00,
2014-01-29 02:00:00,27.2,25.5,30.13,NNW,336,0.0,4.0,93,0.00,,,0.00,VWS V15.00,2014-01-29 07:00:00,
2014-01-29 02:01:00,27.5,25.8,30.11,NNW,346,0.0,4.0,93,0.00,,OVC060,0.00,VWS V15.00,2014-01-29 07:01:00,
2014-01-29 02:08:00,27.5,25.8,30.13,NNE,14,0.0,4.0,93,0.00,,OVC060,0.00,VWS V15.00,2014-01-29 07:08:00,
2014-01-29 02:14:00,27.6,25.8,30.12,NNE,14,0.0,4.0,93,0.00,,OVC060,0.00,VWS V15.00,2014-01-29 07:14:00,
2014-01-29 02:20:00,27.6,25.8,30.12,NNE,14,0.0,4.0,93,0.00,,OVC060,0.00,VWS V15.00,2014-01-29 07:20:00,
2014-01-29 02:26:00,27.6,25.8,30.12,NNE,13,0.0,4.0,93,0.00,,OVC060,0.00,VWS V15.00,2014-01-29 07:26:00,
2014-01-29 02:32:00,27.6,25.8,30.12,NNE,13,0.0,4.0,93,0.00,,OVC060,0.00,VWS V15.00,2014-01-29 07:32:00,
2014-01-29 02:39:00,27.5,25.8,30.12,NNE,13,0.0,4.0,93,0.00,,OVC060,0.00,VWS V15.00,2014-01-29 07:39:00,
2014-01-29 02:45:00,27.5,25.8,30.12,NNE,13,0.0,4.0,93,0.00,,OVC060,0.00,VWS V15.00,2014-01-29 07:45:00,
2014-01-29 02:51:00,27.3,25.5,30.13,NNW,336,0.0,4.0,93,0.00,,OVC060,0.00,VWS V15.00,2014-01-29 07:51:00,
2014-01-29 02:57:00,27.3,25.5,30.11,NNW,336,0.0,4.0,93,0.00,,OVC060,0.00,VWS V15.00,2014-01-29 07:57:00,
2014-01-29 03:00:00,26.2,24.7,30.13,North,360,0.0,2.0,94,0.00,,,0.00,VWS V15.00,2014-01-29 08:00:00,
2014-01-29 03:03:00,27.2,25.5,30.13,NNW,336,0.0,0.0,93,0.00,,OVC060,0.00,VWS V15.00,2014-01-29 08:03:00,
2014-01-29 03:09:00,27.1,25.4,30.13,NNW,336,0.0,1.0,93,0.00,,OVC060,0.00,VWS V15.00,2014-01-29 08:09:00,
2014-01-29 03:15:00,27.0,25.2,30.13,NNW,336,0.0,1.0,93,0.00,,OVC060,0.00,VWS V15.00,2014-01-29 08:15:00,
2014-01-29 03:21:00,26.9,25.1,30.13,NNW,347,0.0,1.0,93,0.00,,OVC060,0.00,VWS V15.00,2014-01-29 08:21:00,
2014-01-29 03:27:00,26.7,25.0,30.12,NNW,348,0.0,1.0,93,0.00,,OVC060,0.00,VWS V15.00,2014-01-29 08:27:00,
2014-01-29 03:30:00,26.7,25.0,30.12,NNW,347,0.0,1.0,93,0.00,,OVC060,0.00,VWS V15.00,2014-01-29 08:30:00,
2014-01-29 03:36:00,26.5,24.8,30.12,NNW,346,0.0,2.0,93,0.00,,OVC060,0.00,VWS V15.00,2014-01-29 08:36:00,
2014-01-29 03:42:00,26.3,24.6,30.12,NNW,344,0.0,2.0,93,0.00,,OVC060,0.00,VWS V15.00,2014-01-29 08:42:00,
2014-01-29 03:49:00,26.3,24.6,30.13,NNW,346,0.0,2.0,93,0.00,,OVC060,0.00,VWS V15.00,2014-01-29 08:49:00,
2014-01-29 03:55:00,26.2,24.7,30.12,NNW,342,0.0,2.0,94,0.00,,OVC060,0.00,VWS V15.00,2014-01-29 08:55:00,
2014-01-29 04:00:00,26.1,24.4,30.17,WNW,295,0.0,4.0,93,0.00,,,0.00,VWS V15.00,2014-01-29 09:00:00,
2014-01-29 04:01:00,26.2,24.7,30.13,North,360,0.0,2.0,94,0.00,,OVC060,0.00,VWS V15.00,2014-01-29 09:01:00,
2014-01-29 04:07:00,26.2,24.7,30.14,North,360,0.0,0.0,94,0.00,,OVC060,0.00,VWS V15.00,2014-01-29 09:07:00,
2014-01-29 04:13:00,26.3,24.8,30.15,NNE,17,0.0,1.0,94,0.00,,OVC060,0.00,VWS V15.00,2014-01-29 09:13:00,
2014-01-29 04:19:00,26.2,24.7,30.14,NE,46,0.0,2.0,94,0.00,,OVC060,0.00,VWS V15.00,2014-01-29 09:19:00,
2014-01-29 04:25:00,26.2,24.5,30.13,NNW,338,0.0,2.0,93,0.00,,OVC060,0.00,VWS V15.00,2014-01-29 09:25:00,
2014-01-29 04:31:00,26.1,24.4,30.15,NNW,327,2.0,2.0,93,0.00,,OVC060,0.00,VWS V15.00,2014-01-29 09:31:00,
2014-01-29 04:37:00,26.2,24.5,30.15,NNW,327,0.0,4.0,93,0.00,,OVC060,0.00,VWS V15.00,2014-01-29 09:37:00,
2014-01-29 04:43:00,26.1,24.4,30.16,NW,326,0.0,4.0,93,0.00,,OVC060,0.00,VWS V15.00,2014-01-29 09:43:00,
2014-01-29 04:49:00,26.1,24.4,30.16,NNW,327,0.0,4.0,93,0.00,,OVC060,0.00,VWS V15.00,2014-01-29 09:49:00,
2014-01-29 04:55:00,26.1,24.4,30.17,WSW,246,0.0,4.0,93,0.00,,OVC060,0.00,VWS V15.00,2014-01-29 09:55:00,
2014-01-29 05:00:00,25.6,23.6,30.20,NNW,345,0.0,5.0,92,0.00,,,0.00,VWS V15.00,2014-01-29 10:00:00,
2014-01-29 05:01:00,26.1,24.4,30.17,WNW,295,0.0,4.0,93,0.00,,OVC060,0.00,VWS V15.00,2014-01-29 10:01:00,
2014-01-29 05:08:00,26.0,24.3,30.14,NNW,327,0.0,1.0,93,0.00,,OVC060,0.00,VWS V15.00,2014-01-29 10:08:00,
2014-01-29 05:14:00,25.8,24.1,30.13,North,9,0.0,2.0,93,0.00,,OVC060,0.00,VWS V15.00,2014-01-29 10:14:00,
2014-01-29 05:20:00,25.8,24.1,30.15,NW,315,1.0,2.0,93,0.00,,OVC060,0.00,VWS V15.00,2014-01-29 10:20:00,
2014-01-29 05:26:00,25.8,23.8,30.16,NNE,14,0.0,2.0,92,0.00,,OVC060,0.00,VWS V15.00,2014-01-29 10:26:00,
2014-01-29 05:32:00,25.7,23.7,30.17,North,355,0.0,5.0,92,0.00,,OVC060,0.00,VWS V15.00,2014-01-29 10:32:00,
2014-01-29 05:38:00,25.6,23.6,30.17,North,355,0.0,5.0,92,0.00,,OVC060,0.00,VWS V15.00,2014-01-29 10:38:00,
2014-01-29 05:44:00,25.6,23.6,30.18,NNW,344,0.0,5.0,92,0.00,,OVC060,0.00,VWS V15.00,2014-01-29 10:44:00,
2014-01-29 05:50:00,25.6,23.6,30.17,NNW,344,0.0,5.0,92,0.00,,OVC060,0.00,VWS V15.00,2014-01-29 10:50:00,
2014-01-29 05:56:00,25.6,23.6,30.19,North,10,0.0,5.0,92,0.00,,OVC060,0.00,VWS V15.00,2014-01-29 10:56:00,
2014-01-29 06:00:00,25.2,23.2,30.19,North,9,0.0,5.0,92,0.00,,,0.00,VWS V15.00,2014-01-29 11:00:00,
2014-01-29 06:02:00,25.5,23.5,30.20,NNW,345,0.0,0.0,92,0.00,,OVC060,0.00,VWS V15.00,2014-01-29 11:02:00,
2014-01-29 06:08:00,25.5,23.5,30.17,North,9,0.0,1.0,92,0.00,,OVC060,0.00,VWS V15.00,2014-01-29 11:08:00,
2014-01-29 06:15:00,25.5,23.5,30.17,North,360,0.0,1.0,92,0.00,,OVC060,0.00,VWS V15.00,2014-01-29 11:15:00,
2014-01-29 06:21:00,25.5,23.5,30.17,North,355,0.0,1.0,92,0.00,,OVC060,0.00,VWS V15.00,2014-01-29 11:21:00,
2014-01-29 06:27:00,25.4,23.4,30.19,WNW,292,1.0,2.0,92,0.00,,OVC060,0.00,VWS V15.00,2014-01-29 11:27:00,
2014-01-29 06:33:00,25.4,23.4,30.20,NW,313,0.0,2.0,92,0.00,,OVC060,0.00,VWS V15.00,2014-01-29 11:33:00,
2014-01-29 06:39:00,25.3,23.3,30.19,NE,52,1.0,2.0,92,0.00,,OVC060,0.00,VWS V15.00,2014-01-29 11:39:00,
2014-01-29 06:45:00,25.3,23.3,30.19,NW,306,2.0,2.0,92,0.00,,OVC060,0.00,VWS V15.00,2014-01-29 11:45:00,
2014-01-29 06:51:00,25.3,23.3,30.19,NNW,334,0.0,5.0,92,0.00,,OVC060,0.00,VWS V15.00,2014-01-29 11:51:00,
2014-01-29 06:57:00,25.2,23.2,30.19,North,9,0.0,5.0,92,0.00,,OVC060,0.00,VWS V15.00,2014-01-29 11:57:00,
2014-01-29 07:00:00,25.3,23.3,30.24,NW,311,0.0,2.0,92,0.00,,,0.00,VWS V15.00,2014-01-29 12:00:00,
2014-01-29 07:03:00,25.3,23.3,30.18,North,9,0.0,0.0,92,0.00,,OVC060,0.00,VWS V15.00,2014-01-29 12:03:00,
2014-01-29 07:09:00,25.3,23.3,30.20,North,5,1.0,1.0,92,0.00,,OVC060,0.00,VWS V15.00,2014-01-29 12:09:00,
2014-01-29 07:15:00,25.2,23.2,30.19,NW,319,0.0,2.0,92,0.00,,OVC060,0.00,VWS V15.00,2014-01-29 12:15:00,
2014-01-29 07:21:00,25.2,23.2,30.19,NW,323,0.0,2.0,92,0.00,,OVC060,0.00,VWS V15.00,2014-01-29 12:21:00,
2014-01-29 07:28:00,25.1,23.1,30.19,NW,323,0.0,2.0,92,0.00,,OVC060,0.00,VWS V15.00,2014-01-29 12:28:00,
2014-01-29 07:34:00,25.2,23.2,30.20,NW,324,0.0,2.0,92,0.00,,OVC060,0.00,VWS V15.00,2014-01-29 12:34:00,
2014-01-29 07:40:00,25.2,23.2,30.22,West,277,0.0,2.0,92,0.00,,OVC060,0.00,VWS V15.00,2014-01-29 12:40:00,
2014-01-29 07:46:00,25.2,23.2,30.23,NNW,330,0.0,2.0,92,0.00,,OVC060,0.00,VWS V15.00,2014-01-29 12:46:00,
2014-01-29 07:52:00,25.2,23.2,30.22,NW,310,0.0,2.0,92,0.00,,OVC060,0.00,VWS V15.00,2014-01-29 12:52:00,
2014-01-29 07:58:00,25.3,23.3,30.23,NE,48,0.0,2.0,92,0.00,,OVC060,0.00,VWS V15.00,2014-01-29 12:58:00,
2014-01-29 08:00:00,25.6,23.3,30.25,ENE,61,0.0,2.0,91,0.00,,,0.00,VWS V15.00,2014-01-29 13:00:00,
2014-01-29 08:04:00,25.3,23.3,30.24,North,9,0.0,1.0,92,0.00,,OVC060,0.00,VWS V15.00,2014-01-29 13:04:00,
2014-01-29 08:10:00,25.3,23.0,30.24,NNW,344,0.0,1.0,91,0.00,,OVC060,0.00,VWS V15.00,2014-01-29 13:10:00,
2014-01-29 08:16:00,25.3,23.0,30.24,NNW,344,0.0,1.0,91,0.00,,OVC060,0.00,VWS V15.00,2014-01-29 13:16:00,
2014-01-29 08:22:00,25.3,23.0,30.24,SW,224,0.0,2.0,91,0.00,,OVC060,0.00,VWS V15.00,2014-01-29 13:22:00,
2014-01-29 08:28:00,25.3,23.0,30.24,NW,312,0.0,2.0,91,0.00,,OVC060,0.00,VWS V15.00,2014-01-29 13:28:00,
2014-01-29 08:34:00,25.4,23.1,30.24,NW,312,0.0,2.0,91,0.00,,OVC060,0.00,VWS V15.00,2014-01-29 13:34:00,
2014-01-29 08:41:00,25.5,23.2,30.23,NNW,340,0.0,2.0,91,0.00,,OVC060,0.00,VWS V15.00,2014-01-29 13:41:00,
2014-01-29 08:47:00,25.6,23.6,30.24,NNW,340,0.0,2.0,92,0.00,,OVC060,0.00,VWS V15.00,2014-01-29 13:47:00,
2014-01-29 08:53:00,25.6,23.3,30.24,ENE,62,0.0,2.0,91,0.00,,OVC060,0.00,VWS V15.00,2014-01-29 13:53:00,
2014-01-29 08:59:00,25.6,23.3,30.24,ENE,61,0.0,2.0,91,0.00,,OVC060,0.00,VWS V15.00,2014-01-29 13:59:00,
2014-01-29 09:00:00,26.4,23.6,30.29,NE,36,1.0,2.0,89,0.00,,,0.00,VWS V15.00,2014-01-29 14:00:00,
2014-01-29 09:05:00,25.7,23.4,30.26,NNE,31,0.0,1.0,91,0.00,,OVC060,0.00,VWS V15.00,2014-01-29 14:05:00,
2014-01-29 09:11:00,25.8,23.5,30.26,North,360,0.0,1.0,91,0.00,,OVC060,0.00,VWS V15.00,2014-01-29 14:11:00,
2014-01-29 09:17:00,25.9,23.6,30.27,NE,40,0.0,1.0,91,0.00,,OVC060,0.00,VWS V15.00,2014-01-29 14:17:00,
2014-01-29 09:23:00,26.0,23.7,30.28,NW,323,0.0,2.0,91,0.00,,OVC060,0.00,VWS V15.00,2014-01-29 14:23:00,
2014-01-29 09:29:00,26.1,23.6,30.28,NW,323,0.0,2.0,90,0.00,,OVC060,0.00,VWS V15.00,2014-01-29 14:29:00,
2014-01-29 09:35:00,26.2,23.9,30.27,NW,324,0.0,2.0,91,0.00,,OVC060,0.00,VWS V15.00,2014-01-29 14:35:00,
2014-01-29 09:41:00,26.4,24.1,30.27,NW,323,0.0,2.0,91,0.00,,OVC060,0.00,VWS V15.00,2014-01-29 14:41:00,
2014-01-29 09:47:00,26.6,24.3,30.28,NW,323,1.0,2.0,91,0.00,,OVC060,0.00,VWS V15.00,2014-01-29 14:47:00,
2014-01-29 09:54:00,26.6,24.1,30.29,North,349,1.0,2.0,90,0.00,,OVC060,0.00,VWS V15.00,2014-01-29 14:54:00,
2014-01-29 10:00:00,26.4,23.6,30.29,NE,36,0.0,2.0,89,0.00,,OVC060,0.00,VWS V15.00,2014-01-29 15:00:00,
2014-01-29 10:06:00,26.5,23.7,30.29,NW,323,0.0,4.0,89,0.00,,OVC060,0.00,VWS V15.00,2014-01-29 15:06:00,
2014-01-29 10:12:00,26.8,24.0,30.28,NNW,329,0.0,4.0,89,0.00,,OVC060,0.00,VWS V15.00,2014-01-29 15:12:00,
2014-01-29 10:18:00,27.0,24.2,30.29,North,360,0.0,4.0,89,0.00,,OVC060,0.00,VWS V15.00,2014-01-29 15:18:00,
2014-01-29 10:24:00,27.1,24.0,30.29,NNW,338,0.0,4.0,88,0.00,,OVC060,0.00,VWS V15.00,2014-01-29 15:24:00,
2014-01-29 10:30:00,27.0,23.9,30.29,NE,53,0.0,4.0,88,0.00,,OVC060,0.00,VWS V15.00,2014-01-29 15:30:00,
2014-01-29 10:36:00,27.1,24.0,30.29,East,91,0.0,4.0,88,0.00,,OVC060,0.00,VWS V15.00,2014-01-29 15:36:00,
2014-01-29 10:42:00,27.2,23.9,30.29,NNE,22,2.0,4.0,87,0.00,,OVC060,0.00,VWS V15.00,2014-01-29 15:42:00,
2014-01-29 10:48:00,27.3,24.0,30.29,NNE,18,1.0,4.0,87,0.00,,OVC060,0.00,VWS V15.00,2014-01-29 15:48:00,
2014-01-29 10:54:00,27.2,23.6,30.29,NNE,22,0.0,4.0,86,0.00,,OVC060,0.00,VWS V15.00,2014-01-29 15:54:00,
2014-01-29 11:00:00,28.3,23.8,30.29,NE,35,0.0,4.0,83,0.00,,,0.00,VWS V15.00,2014-01-29 16:00:00,
2014-01-29 11:01:00,27.5,24.1,30.29,NNW,333,0.0,4.0,87,0.00,,OVC060,0.00,VWS V15.00,2014-01-29 16:01:00,
2014-01-29 11:07:00,27.8,24.4,30.30,ENE,64,0.0,1.0,87,0.00,,OVC060,0.00,VWS V15.00,2014-01-29 16:07:00,
2014-01-29 11:13:00,28.0,24.6,30.30,North,355,0.0,3.0,87,0.00,,OVC060,0.00,VWS V15.00,2014-01-29 16:13:00,
2014-01-29 11:19:00,28.0,24.4,30.30,NE,38,0.0,4.0,86,0.00,,OVC060,0.00,VWS V15.00,2014-01-29 16:19:00,
2014-01-29 11:25:00,28.1,24.5,30.30,NW,316,0.0,4.0,86,0.00,,OVC060,0.00,VWS V15.00,2014-01-29 16:25:00,
2014-01-29 11:31:00,28.3,24.7,30.30,East,84,2.0,4.0,86,0.00,,OVC060,0.00,VWS V15.00,2014-01-29 16:31:00,
2014-01-29 11:37:00,28.0,23.8,30.30,NE,34,0.0,4.0,84,0.00,,OVC060,0.00,VWS V15.00,2014-01-29 16:37:00,
2014-01-29 11:43:00,28.1,24.2,30.30,NNW,346,0.0,4.0,85,0.00,,OVC060,0.00,VWS V15.00,2014-01-29 16:43:00,
2014-01-29 11:49:00,28.1,23.6,30.30,NE,38,0.0,4.0,83,0.00,,OVC060,0.00,VWS V15.00,2014-01-29 16:49:00,
2014-01-29 11:55:00,28.1,23.6,30.30,NE,34,0.0,4.0,83,0.00,,OVC060,0.00,VWS V15.00,2014-01-29 16:55:00,
2014-01-29 12:00:00,28.8,23.1,30.28,NNE,21,0.0,6.0,79,0.00,,,0.00,VWS V15.00,2014-01-29 17:00:00,
2014-01-29 12:01:00,28.3,23.8,30.29,NE,35,0.0,4.0,83,0.00,,OVC060,0.00,VWS V15.00,2014-01-29 17:01:00,
2014-01-29 12:07:00,28.5,24.0,30.29,NNW,336,1.0,4.0,83,0.00,,OVC060,0.00,VWS V15.00,2014-01-29 17:07:00,
2014-01-29 12:14:00,28.7,23.9,30.30,NE,55,0.0,5.0,82,0.00,,OVC060,0.00,VWS V15.00,2014-01-29 17:14:00,
2014-01-29 12:20:00,28.8,23.7,30.29,NNE,26,0.0,6.0,81,0.00,,OVC060,0.00,VWS V15.00,2014-01-29 17:20:00,
2014-01-29 12:26:00,28.5,23.1,30.30,North,360,1.0,6.0,80,0.00,,OVC060,0.00,VWS V15.00,2014-01-29 17:26:00,
2014-01-29 12:32:00,28.8,23.4,30.30,North,5,0.0,6.0,80,0.00,,OVC060,0.00,VWS V15.00,2014-01-29 17:32:00,
2014-01-29 12:38:00,28.8,23.1,30.29,ENE,74,0.0,6.0,79,0.00,,OVC060,0.00,VWS V15.00,2014-01-29 17:38:00,
2014-01-29 12:44:00,28.9,22.9,30.29,WNW,299,1.0,6.0,78,0.00,,OVC060,0.00,VWS V15.00,2014-01-29 17:44:00,
2014-01-29 12:50:00,28.8,22.5,30.29,NNW,343,1.0,6.0,77,0.00,,OVC060,0.00,VWS V15.00,2014-01-29 17:50:00,
2014-01-29 12:56:00,28.8,23.1,30.29,NNE,29,0.0,6.0,79,0.00,,OVC060,0.00,VWS V15.00,2014-01-29 17:56:00,
2014-01-29 13:00:00,30.0,23.7,30.25,NE,46,0.0,4.0,77,0.00,,,0.00,VWS V15.00,2014-01-29 18:00:00,
2014-01-29 13:01:00,28.8,23.1,30.28,NNE,21,0.0,6.0,79,0.00,,OVC060,0.00,VWS V15.00,2014-01-29 18:01:00,
2014-01-29 13:08:00,28.8,22.5,30.28,NE,53,0.0,2.0,77,0.00,,OVC060,0.00,VWS V15.00,2014-01-29 18:08:00,
2014-01-29 13:14:00,29.0,22.7,30.27,North,9,0.0,4.0,77,0.00,,OVC060,0.00,VWS V15.00,2014-01-29 18:14:00,
2014-01-29 13:20:00,29.1,22.8,30.27,NNW,344,0.0,4.0,77,0.00,,OVC060,0.00,VWS V15.00,2014-01-29 18:20:00,
2014-01-29 13:27:00,29.3,23.6,30.27,NNW,335,0.0,4.0,79,0.00,,OVC060,0.00,VWS V15.00,2014-01-29 18:27:00,
2014-01-29 13:33:00,29.5,23.2,30.27,NNW,341,0.0,4.0,77,0.00,,OVC060,0.00,VWS V15.00,2014-01-29 18:33:00,
2014-01-29 13:39:00,29.5,23.5,30.27,North,355,0.0,4.0,78,0.00,,OVC060,0.00,VWS V15.00,2014-01-29 18:39:00,
2014-01-29 13:45:00,29.7,23.7,30.26,NE,48,1.0,4.0,78,0.00,,OVC060,0.00,VWS V15.00,2014-01-29 18:45:00,
2014-01-29 13:51:00,29.7,23.4,30.27,NW,313,0.0,4.0,77,0.00,,OVC060,0.00,VWS V15.00,2014-01-29 18:51:00,
2014-01-29 13:57:00,30.0,24.3,30.26,NW,313,1.0,4.0,79,0.00,,OVC060,0.00,VWS V15.00,2014-01-29 18:57:00,
2014-01-29 14:00:00,29.8,21.9,30.29,NW,326,0.0,5.0,72,0.00,,,0.00,VWS V15.00,2014-01-29 19:00:00,
2014-01-29 14:03:00,30.0,23.7,30.26,NE,44,0.0,1.0,77,0.00,,OVC060,0.00,VWS V15.00,2014-01-29 19:03:00,
2014-01-29 14:09:00,29.7,22.8,30.26,WNW,296,1.0,4.0,75,0.00,,OVC060,0.00,VWS V15.00,2014-01-29 19:09:00,
2014-01-29 14:15:00,29.5,22.6,30.27,NE,51,0.0,4.0,75,0.00,,OVC060,0.00,VWS V15.00,2014-01-29 19:15:00,
2014-01-29 14:21:00,29.3,22.1,30.27,NNW,340,0.0,5.0,74,0.00,,OVC060,0.00,VWS V15.00,2014-01-29 19:21:00,
2014-01-29 14:27:00,29.2,22.0,30.27,NE,34,0.0,5.0,74,0.00,,OVC060,0.00,VWS V15.00,2014-01-29 19:27:00,
2014-01-29 14:34:00,29.1,22.2,30.28,NNE,24,0.0,5.0,75,0.00,,OVC060,0.00,VWS V15.00,2014-01-29 19:34:00,
2014-01-29 14:40:00,29.3,22.1,30.28,NNW,338,0.0,5.0,74,0.00,,OVC060,0.00,VWS V15.00,2014-01-29 19:40:00,
2014-01-29 14:46:00,29.5,22.2,30.28,NW,315,0.0,5.0,74,0.00,,OVC060,0.00,VWS V15.00,2014-01-29 19:46:00,
2014-01-29 14:52:00,29.7,22.4,30.28,NW,315,0.0,5.0,74,0.00,,OVC060,0.00,VWS V15.00,2014-01-29 19:52:00,
2014-01-29 14:58:00,29.8,21.9,30.29,NW,316,1.0,5.0,72,0.00,,OVC060,0.00,VWS V15.00,2014-01-29 19:58:00,
2014-01-29 15:00:00,29.3,21.7,30.26,NNW,345,0.0,2.0,73,0.00,,,0.00,VWS V15.00,2014-01-29 20:00:00,
2014-01-29 15:04:00,29.8,21.9,30.28,NNW,327,0.0,0.0,72,0.00,,OVC060,0.00,VWS V15.00,2014-01-29 20:04:00,
2014-01-29 15:10:00,29.7,21.8,30.29,NW,326,0.0,0.0,72,0.00,,OVC060,0.00,VWS V15.00,2014-01-29 20:10:00,
2014-01-29 15:16:00,29.6,22.0,30.29,NNW,327,1.0,1.0,73,0.00,,OVC060,0.00,VWS V15.00,2014-01-29 20:16:00,
2014-01-29 15:22:00,29.6,22.0,30.28,NW,325,0.0,1.0,73,0.00,,OVC060,0.00,VWS V15.00,2014-01-29 20:22:00,
2014-01-29 15:28:00,29.6,22.4,30.28,NNW,328,0.0,1.0,74,0.00,,OVC060,0.00,VWS V15.00,2014-01-29 20:28:00,
2014-01-29 15:34:00,29.6,22.4,30.27,NNW,331,0.0,2.0,74,0.00,,OVC060,0.00,VWS V15.00,2014-01-29 20:34:00,
2014-01-29 15:40:00,29.4,21.2,30.28,NNW,335,0.0,2.0,71,0.00,,OVC060,0.00,VWS V15.00,2014-01-29 20:40:00,
2014-01-29 15:47:00,29.3,21.1,30.27,NNW,346,0.0,2.0,71,0.00,,OVC060,0.00,VWS V15.00,2014-01-29 20:47:00,
2014-01-29 15:53:00,29.3,21.7,30.26,NNW,345,0.0,2.0,73,0.00,,OVC060,0.00,VWS V15.00,2014-01-29 20:53:00,
2014-01-29 15:59:00,29.3,21.7,30.26,NNW,345,0.0,2.0,73,0.00,,OVC060,0.00,VWS V15.00,2014-01-29 20:59:00,
2014-01-29 16:00:00,29.2,22.6,30.29,WSW,257,0.0,2.0,76,0.01,,,0.01,VWS V15.00,2014-01-29 21:00:00,
2014-01-29 16:05:00,29.2,21.3,30.26,NNW,346,0.0,1.0,72,0.00,,OVC060,0.00,VWS V15.00,2014-01-29 21:05:00,
2014-01-29 16:11:00,29.1,20.9,30.27,NNE,19,0.0,2.0,71,0.00,,OVC060,0.00,VWS V15.00,2014-01-29 21:11:00,
2014-01-29 16:17:00,29.1,21.5,30.27,NE,37,0.0,2.0,73,0.00,,OVC060,0.00,VWS V15.00,2014-01-29 21:17:00,
2014-01-29 16:23:00,29.1,20.9,30.27,NE,37,0.0,2.0,71,0.00,,OVC060,0.00,VWS V15.00,2014-01-29 21:23:00,
2014-01-29 16:29:00,29.2,21.6,30.27,NE,37,0.0,2.0,73,0.00,,OVC060,0.00,VWS V15.00,2014-01-29 21:29:00,
2014-01-29 16:35:00,29.3,21.4,30.27,ENE,59,0.0,2.0,72,0.01,,OVC060,0.01,VWS V15.00,2014-01-29 21:35:00,
2014-01-29 16:41:00,29.2,21.0,30.28,WSW,256,0.0,2.0,71,0.01,,OVC060,0.01,VWS V15.00,2014-01-29 21:41:00,
2014-01-29 16:47:00,29.2,21.3,30.28,WSW,258,0.0,2.0,72,0.01,,OVC060,0.01,VWS V15.00,2014-01-29 21:47:00,
2014-01-29 16:53:00,29.2,21.6,30.29,WSW,258,0.0,2.0,73,0.01,,OVC060,0.01,VWS V15.00,2014-01-29 21:53:00,
2014-01-29 17:00:00,29.1,22.8,30.29,WSW,257,0.0,2.0,77,0.01,,OVC060,0.01,VWS V15.00,2014-01-29 22:00:00,
2014-01-29 17:06:00,29.1,22.2,30.29,WSW,258,0.0,0.0,75,0.01,,OVC060,0.01,VWS V15.00,2014-01-29 22:06:00,
2014-01-29 17:12:00,29.1,23.1,30.29,WSW,258,0.0,0.0,78,0.01,,OVC060,0.01,VWS V15.00,2014-01-29 22:12:00,
2014-01-29 17:18:00,28.9,22.3,30.29,WSW,257,0.0,0.0,76,0.01,,OVC060,0.01,VWS V15.00,2014-01-29 22:18:00,
2014-01-29 17:24:00,28.9,22.6,30.29,WSW,258,0.0,0.0,77,0.01,,OVC060,0.01,VWS V15.00,2014-01-29 22:24:00,
2014-01-29 17:30:00,28.8,22.8,30.30,WSW,257,0.0,0.0,78,0.01,,OVC060,0.01,VWS V15.00,2014-01-29 22:30:00,
2014-01-29 17:36:00,28.7,22.4,30.30,WSW,257,0.0,0.0,77,0.01,,OVC060,0.01,VWS V15.00,2014-01-29 22:36:00,
2014-01-29 17:42:00,28.5,23.1,30.30,WSW,257,0.0,0.0,80,0.01,,OVC060,0.01,VWS V15.00,2014-01-29 22:42:00,
2014-01-29 17:48:00,28.4,23.0,30.29,WSW,257,0.0,0.0,80,0.01,,OVC060,0.01,VWS V15.00,2014-01-29 22:48:00,
2014-01-29 17:54:00,28.3,22.9,30.30,WSW,258,0.0,0.0,80,0.01,,OVC060,0.01,VWS V15.00,2014-01-29 22:54:00,
2014-01-29 18:00:00,28.3,23.2,30.29,WSW,257,0.0,0.0,81,0.01,,OVC060,0.01,VWS V15.00,2014-01-29 23:00:00,
2014-01-29 18:07:00,28.2,22.5,30.29,WSW,258,0.0,0.0,79,0.00,,OVC060,0.01,VWS V15.00,2014-01-29 23:07:00,
2014-01-29 18:13:00,28.1,22.4,30.29,WSW,258,0.0,0.0,79,0.00,,OVC060,0.01,VWS V15.00,2014-01-29 23:13:00,
2014-01-29 18:19:00,28.1,23.0,30.29,WSW,257,0.0,0.0,81,0.00,,OVC060,0.01,VWS V15.00,2014-01-29 23:19:00,
2014-01-29 18:25:00,28.0,22.6,30.29,WSW,257,0.0,0.0,80,0.00,,OVC060,0.01,VWS V15.00,2014-01-29 23:25:00,
2014-01-29 18:31:00,28.0,22.0,30.29,WSW,258,0.0,0.0,78,0.00,,OVC060,0.01,VWS V15.00,2014-01-29 23:31:00,
2014-01-29 18:37:00,28.0,22.6,30.29,WSW,257,0.0,0.0,80,0.00,,OVC060,0.01,VWS V15.00,2014-01-29 23:37:00,
2014-01-29 18:43:00,28.0,22.6,30.29,WSW,258,0.0,0.0,80,0.00,,OVC060,0.01,VWS V15.00,2014-01-29 23:43:00,
2014-01-29 18:49:00,28.1,23.0,30.29,WSW,257,0.0,0.0,81,0.00,,OVC060,0.01,VWS V15.00,2014-01-29 23:49:00,
2014-01-29 18:55:00,28.1,22.7,30.29,WSW,258,0.0,0.0,80,0.00,,OVC060,0.01,VWS V15.00,2014-01-29 23:55:00,
2014-01-29 19:00:00,28.1,22.4,30.30,South,182,0.0,2.0,79,0.00,,,0.01,VWS V15.00,2014-01-30 00:00:00,
2014-01-29 19:01:00,28.0,22.6,30.29,WSW,258,0.0,0.0,80,0.00,,OVC060,0.01,VWS V15.00,2014-01-30 00:01:00,
2014-01-29 19:07:00,28.1,22.1,30.29,NNW,346,0.0,2.0,78,0.00,,OVC060,0.01,VWS V15.00,2014-01-30 00:07:00,
2014-01-29 19:13:00,28.2,22.2,30.29,NNW,347,0.0,2.0,78,0.00,,OVC060,0.01,VWS V15.00,2014-01-30 00:13:00,
2014-01-29 19:20:00,28.3,22.0,30.29,NNW,346,0.0,2.0,77,0.00,,OVC060,0.01,VWS V15.00,2014-01-30 00:20:00,
2014-01-29 19:26:00,28.3,21.4,30.29,North,351,0.0,2.0,75,0.00,,OVC060,0.01,VWS V15.00,2014-01-30 00:26:00,
2014-01-29 19:32:00,28.4,22.4,30.29,North,350,0.0,2.0,78,0.00,,OVC060,0.01,VWS V15.00,2014-01-30 00:32:00,
2014-01-29 19:38:00,28.4,22.7,30.30,North,350,0.0,2.0,79,0.00,,OVC060,0.01,VWS V15.00,2014-01-30 00:38:00,
2014-01-29 19:44:00,28.3,22.3,30.30,South,182,0.0,2.0,78,0.00,,OVC060,0.01,VWS V15.00,2014-01-30 00:44:00,
2014-01-29 19:50:00,28.3,23.2,30.29,South,182,0.0,2.0,81,0.00,,OVC060,0.01,VWS V15.00,2014-01-30 00:50:00,
2014-01-29 19:56:00,28.1,23.0,30.30,South,182,0.0,2.0,81,0.00,,OVC060,0.01,VWS V15.00,2014-01-30 00:56:00,
2014-01-29 20:00:00,27.5,20.9,30.32,South,182,0.0,0.0,76,0.00,,,0.01,VWS V15.00,2014-01-30 01:00:00,
2014-01-29 20:01:00,28.1,22.4,30.30,South,182,0.0,2.0,79,0.00,,OVC060,0.01,VWS V15.00,2014-01-30 01:01:00,
2014-01-29 20:08:00,28.1,22.1,30.31,South,182,0.0,0.0,78,0.00,,OVC060,0.01,VWS V15.00,2014-01-30 01:08:00,
2014-01-29 20:14:00,28.2,21.9,30.30,South,182,0.0,0.0,77,0.00,,OVC060,0.01,VWS V15.00,2014-01-30 01:14:00,
2014-01-29 20:20:00,28.3,22.6,30.30,South,182,0.0,0.0,79,0.00,,OVC060,0.01,VWS V15.00,2014-01-30 01:20:00,
2014-01-29 20:26:00,28.1,21.8,30.31,South,182,0.0,0.0,77,0.00,,OVC060,0.01,VWS V15.00,2014-01-30 01:26:00,
2014-01-29 20:33:00,28.0,21.1,30.31,South,182,0.0,0.0,75,0.00,,OVC060,0.01,VWS V15.00,2014-01-30 01:33:00,
2014-01-29 20:39:00,27.9,21.0,30.31,South,182,0.0,0.0,75,0.00,,OVC060,0.01,VWS V15.00,2014-01-30 01:39:00,
2014-01-29 20:45:00,27.8,21.5,30.31,South,182,0.0,0.0,77,0.00,,OVC060,0.01,VWS V15.00,2014-01-30 01:45:00,
2014-01-29 20:51:00,27.6,21.0,30.32,South,182,0.0,0.0,76,0.00,,OVC060,0.01,VWS V15.00,2014-01-30 01:51:00,
2014-01-29 20:57:00,27.5,20.9,30.32,South,182,0.0,0.0,76,0.00,,OVC060,0.01,VWS V15.00,2014-01-30 01:57:00,
2014-01-29 21:00:00,26.9,20.4,30.32,South,182,0.0,0.0,76,0.00,,,0.01,VWS V15.00,2014-01-30 02:00:00,
2014-01-29 21:03:00,27.4,21.1,30.32,South,182,0.0,0.0,77,0.00,,OVC060,0.01,VWS V15.00,2014-01-30 02:03:00,
2014-01-29 21:09:00,27.4,21.1,30.32,South,182,0.0,0.0,77,0.00,,OVC060,0.01,VWS V15.00,2014-01-30 02:09:00,
2014-01-29 21:15:00,27.4,21.5,30.33,South,182,0.0,0.0,78,0.00,,OVC060,0.01,VWS V15.00,2014-01-30 02:15:00,
2014-01-29 21:21:00,27.4,21.8,30.33,South,182,0.0,0.0,79,0.00,,OVC060,0.01,VWS V15.00,2014-01-30 02:21:00,
2014-01-29 21:27:00,27.4,21.1,30.32,South,182,0.0,0.0,77,0.00,,OVC060,0.01,VWS V15.00,2014-01-30 02:27:00,
2014-01-29 21:33:00,27.4,21.8,30.33,South,182,0.0,0.0,79,0.00,,OVC060,0.01,VWS V15.00,2014-01-30 02:33:00,
2014-01-29 21:39:00,27.4,21.8,30.32,South,182,0.0,0.0,79,0.00,,OVC060,0.01,VWS V15.00,2014-01-30 02:39:00,
2014-01-29 21:46:00,27.2,21.3,30.32,South,182,0.0,0.0,78,0.00,,OVC060,0.01,VWS V15.00,2014-01-30 02:46:00,
2014-01-29 21:52:00,27.0,21.1,30.32,South,182,0.0,0.0,78,0.00,,OVC060,0.01,VWS V15.00,2014-01-30 02:52:00,
2014-01-29 21:58:00,26.9,20.7,30.32,South,182,0.0,0.0,77,0.00,,OVC060,0.01,VWS V15.00,2014-01-30 02:58:00,
2014-01-29 22:00:00,25.7,19.8,30.32,South,182,0.0,0.0,78,0.00,,,0.01,VWS V15.00,2014-01-30 03:00:00,
2014-01-29 22:04:00,26.8,20.3,30.32,South,182,0.0,0.0,76,0.00,,OVC060,0.01,VWS V15.00,2014-01-30 03:04:00,
2014-01-29 22:10:00,26.7,19.9,30.32,South,182,0.0,0.0,75,0.00,,OVC060,0.01,VWS V15.00,2014-01-30 03:10:00,
2014-01-29 22:16:00,26.5,20.0,30.32,South,182,0.0,0.0,76,0.00,,OVC060,0.01,VWS V15.00,2014-01-30 03:16:00,
2014-01-29 22:22:00,26.3,20.1,30.32,South,182,0.0,0.0,77,0.00,,OVC060,0.01,VWS V15.00,2014-01-30 03:22:00,
2014-01-29 22:28:00,26.2,20.0,30.32,South,182,0.0,0.0,77,0.00,,OVC060,0.01,VWS V15.00,2014-01-30 03:28:00,
2014-01-29 22:34:00,26.1,20.2,30.32,South,182,0.0,0.0,78,0.00,,OVC060,0.01,VWS V15.00,2014-01-30 03:34:00,
2014-01-29 22:40:00,26.0,20.1,30.32,South,182,0.0,0.0,78,0.00,,OVC060,0.01,VWS V15.00,2014-01-30 03:40:00,
2014-01-29 22:46:00,25.9,20.0,30.32,South,182,0.0,0.0,78,0.00,,OVC060,0.01,VWS V15.00,2014-01-30 03:46:00,
2014-01-29 22:53:00,25.8,19.9,30.32,South,182,0.0,0.0,78,0.00,,OVC060,0.01,VWS V15.00,2014-01-30 03:53:00,
2014-01-29 22:59:00,25.8,19.9,30.32,South,182,0.0,0.0,78,0.00,,OVC060,0.01,VWS V15.00,2014-01-30 03:59:00,
2014-01-29 23:00:00,25.1,20.1,30.33,South,182,0.0,0.0,81,0.00,,,0.01,VWS V15.00,2014-01-30 04:00:00,
2014-01-29 23:05:00,25.7,19.8,30.32,South,182,0.0,0.0,78,0.00,,OVC060,0.01,VWS V15.00,2014-01-30 04:05:00,
2014-01-29 23:11:00,25.7,19.8,30.32,South,182,0.0,0.0,78,0.00,,OVC060,0.01,VWS V15.00,2014-01-30 04:11:00,
2014-01-29 23:17:00,25.6,19.7,30.32,South,182,0.0,0.0,78,0.00,,OVC060,0.01,VWS V15.00,2014-01-30 04:17:00,
2014-01-29 23:23:00,25.5,19.6,30.32,South,182,0.0,0.0,78,0.00,,OVC060,0.01,VWS V15.00,2014-01-30 04:23:00,
2014-01-29 23:29:00,25.3,19.7,30.32,South,182,0.0,0.0,79,0.00,,OVC060,0.01,VWS V15.00,2014-01-30 04:29:00,
2014-01-29 23:35:00,25.2,19.6,30.32,South,182,0.0,0.0,79,0.00,,OVC060,0.01,VWS V15.00,2014-01-30 04:35:00,
2014-01-29 23:41:00,25.1,19.5,30.33,South,182,0.0,0.0,79,0.00,,OVC060,0.01,VWS V15.00,2014-01-30 04:41:00,
2014-01-29 23:47:00,25.2,19.9,30.33,South,182,0.0,0.0,80,0.00,,OVC060,0.01,VWS V15.00,2014-01-30 04:47:00,
2014-01-29 23:53:00,25.2,19.9,30.33,South,182,0.0,0.0,80,0.00,,OVC060,0.01,VWS V15.00,2014-01-30 04:53:00,
2014-01-29 23:59:00,25.1,20.1,30.33,South,182,0.0,0.0,81,0.00,,OVC060,0.01,VWS V15.00,2014-01-30 04:59:00,